Theta_e
327 321 317 317 319 314 308 303 295 293 293 290 289 289 290 293 294 295 296 297 297 298 299 300 299 301 300 297 298 297 295 296 295 289 292 298 312 318 322 324 330 336 335 338 343 345 346 346 350 351 353 353 353 352 352 351 350 349 349 349 349 349 349 348 349 349 348 349 348 349 349 348 349 348 348 347 348 348 348 348 348 347 347 347 347 347 347 347 345 344 342 341 339 338 338 338 337
322 319 317 319 316 309 302 298 291 287 286 285 289 289 292 291 294 293 295 295 296 300 298 298 298 300 300 299 297 299 298 300 298 300 301 314 317 319 320 325 334 335 336 338 342 345 345 345 348 351 353 353 353 352 351 351 350 349 349 349 349 349 349 349 349 349 349 349 349 349 349 349 349 349 348 348 348 348 348 348 347 347 346 346 346 346 346 346 345 343 341 339 338 336 335 335 335
324 319 318 313 310 308 303 297 294 285 282 283 286 289 292 293 294 293 293 295 297 297 298 298 299 301 301 299 299 298 297 302 300 311 313 316 314 316 323 323 335 336 337 339 342 344 345 344 346 351 353 353 352 351 350 350 350 349 349 348 349 349 349 349 349 348 349 349 348 349 349 349 349 348 348 348 349 348 348 347 347 346 347 346 346 346 346 344 343 342 340 338 336 335 334 333 333
321 319 317 307 306 302 296 293 289 286 286 282 285 289 292 291 292 292 295 296 296 297 300 301 301 301 300 296 299 301 298 301 305 312 310 313 313 312 325 328 333 336 337 339 341 343 344 344 345 351 352 353 352 352 351 350 350 349 349 348 349 349 349 348 348 349 349 348 349 349 349 348 348 348 347 347 348 348 347 347 346 346 346 346 346 345 343 342 341 340 339 337 335 334 333 333 333
315 319 317 306 301 299 296 294 289 285 288 285 285 289 290 291 294 294 296 295 295 298 299 300 298 301 301 302 299 300 297 302 304 311 313 313 316 318 327 328 335 336 336 338 341 342 343 343 345 349 352 352 352 352 351 350 350 349 349 349 349 349 349 349 349 349 349 349 349 349 349 348 348 348 347 346 346 345 346 347 346 344 343 343 343 342 341 340 339 338 338 337 335 333 333 332 331
313 313 314 306 302 302 294 289 287 288 289 288 288 289 291 292 294 295 297 296 299 297 298 298 300 300 301 301 301 301 299 303 305 315 314 314 320 323 326 329 336 335 336 338 340 341 342 342 344 349 353 352 352 352 351 350 350 349 349 349 349 349 349 349 349 349 348 349 348 349 348 348 348 346 346 346 345 345 344 343 342 341 340 341 342 340 339 339 337 336 336 334 334 332 330 330 329
313 308 307 302 302 297 290 286 285 287 292 292 289 290 292 293 295 296 295 299 300 300 300 301 299 298 297 299 302 304 304 309 308 312 316 317 321 326 324 328 334 335 336 338 339 340 341 342 346 349 351 351 352 352 351 351 350 349 349 349 348 349 349 349 349 349 348 349 349 349 348 348 348 346 345 345 344 343 343 343 339 339 339 338 339 339 338 336 335 335 333 332 332 330 328 327 327
313 305 302 294 293 294 290 287 287 287 293 293 292 291 292 294 294 297 296 297 297 300 300 298 299 298 297 299 298 300 306 317 314 317 316 322 323 325 323 326 333 334 335 336 338 339 339 341 345 348 350 351 351 351 351 351 350 350 350 349 349 348 348 349 349 349 349 349 349 349 349 348 346 346 344 343 343 341 340 340 338 339 337 337 336 337 334 335 334 332 333 331 330 327 326 326 325
309 307 301 296 292 290 286 290 291 292 292 291 293 295 301 294 295 295 297 296 297 298 299 300 297 297 295 297 297 299 306 313 316 320 320 321 325 324 324 323 331 332 334 336 337 338 339 339 343 347 348 350 351 351 351 351 350 349 349 349 349 348 348 348 349 349 349 349 349 348 348 347 346 345 344 343 341 340 340 339 338 336 337 336 335 336 336 335 332 332 331 330 328 326 324 325 324
307 299 295 294 292 290 286 286 289 292 291 293 292 297 297 296 297 297 297 297 299 299 297 298 298 299 298 297 298 301 308 314 316 318 319 321 323 323 323 321 326 332 333 334 336 337 339 336 341 345 347 349 350 351 351 350 350 349 350 349 349 348 348 349 349 350 350 350 349 348 348 347 346 345 343 342 342 341 340 339 338 337 337 336 336 334 333 333 332 331 330 328 327 324 323 322 323
300 299 298 291 285 285 286 286 287 290 291 291 293 296 295 297 297 296 296 297 296 297 298 299 300 298 297 298 298 301 309 312 315 314 317 319 321 320 322 319 318 330 332 332 335 337 338 339 336 341 343 346 347 350 350 349 350 350 349 349 349 349 349 349 349 349 349 349 348 347 348 347 346 345 344 342 341 341 340 339 338 337 336 335 332 332 332 331 331 330 329 328 326 323 322 322 322
297 296 294 287 287 287 284 287 289 290 292 291 296 296 296 299 296 296 296 296 295 294 298 299 299 297 296 295 297 300 307 310 311 311 315 317 320 319 320 318 318 325 329 332 333 336 337 338 338 338 340 342 343 346 347 347 348 348 348 349 349 349 348 349 348 348 349 349 348 348 347 347 346 344 343 342 341 340 339 338 337 336 334 333 332 332 331 331 330 329 329 327 324 322 322 321 320
297 294 290 288 288 288 287 288 287 292 288 290 295 298 296 298 298 297 295 294 293 294 295 298 300 299 296 296 296 299 307 308 308 309 312 318 319 318 318 320 319 322 326 330 333 334 335 337 339 340 339 337 338 340 342 343 345 346 347 348 348 348 347 348 348 348 348 348 348 347 346 346 344 344 343 342 341 340 339 338 336 334 333 332 332 331 331 330 329 329 328 326 323 322 321 320 319
300 299 292 291 286 287 288 287 287 291 286 292 291 295 296 297 294 295 296 296 293 296 297 301 299 298 296 295 292 294 299 303 312 311 313 315 315 317 319 318 319 320 324 330 332 333 334 335 338 339 340 340 341 338 337 339 342 344 345 345 345 345 346 346 346 345 346 346 345 343 342 341 341 342 342 341 340 339 338 337 337 333 333 332 331 331 330 329 329 328 327 325 323 322 321 320 319
300 298 290 288 287 285 287 292 291 288 291 292 296 298 296 298 297 295 296 295 295 295 302 300 301 298 292 295 290 295 302 305 311 312 313 315 316 317 318 319 319 318 320 329 331 332 333 334 336 338 338 340 341 342 343 340 337 339 342 342 342 343 343 343 342 343 342 341 341 339 337 335 335 336 336 336 337 335 333 331 334 335 333 333 331 331 330 329 328 327 326 324 323 322 321 319 318
300 294 291 292 285 287 287 290 291 289 290 292 294 295 295 295 296 298 298 298 298 300 300 299 302 299 295 297 299 297 299 309 310 312 313 314 314 316 316 319 319 319 319 324 328 330 333 334 335 336 337 339 340 341 343 343 336 334 338 340 340 341 340 340 340 339 336 334 334 332 330 331 330 331 328 330 330 332 330 326 330 335 333 332 332 331 330 329 328 327 326 324 323 321 320 317 314
299 294 292 284 286 287 287 291 289 287 292 290 291 295 296 294 295 297 299 298 299 297 297 296 300 301 298 299 301 305 308 311 312 312 312 312 313 314 314 317 317 318 320 319 324 329 330 332 333 334 336 338 340 341 343 343 341 332 334 334 334 335 337 336 337 333 329 327 326 325 324 332 330 330 328 328 324 326 322 323 328 333 334 333 333 331 330 328 327 326 325 325 323 321 317 314 312
295 293 286 287 285 288 290 291 291 294 293 292 293 294 295 292 294 296 298 298 295 295 296 298 297 298 299 300 303 306 309 310 310 311 309 309 310 311 311 313 313 320 320 321 319 324 329 331 332 333 335 337 339 340 342 343 342 335 340 339 336 335 332 331 333 336 328 332 325 325 326 326 328 328 327 324 323 323 321 321 324 329 332 332 331 331 329 328 327 326 325 324 323 319 314 297 299
295 290 288 286 286 291 293 293 294 294 292 293 294 292 293 295 295 296 296 292 292 294 296 295 297 297 298 300 299 304 308 308 309 308 308 308 310 312 313 313 315 315 318 319 320 322 327 331 331 333 334 336 338 340 341 342 341 339 340 341 339 334 333 332 334 333 331 330 326 324 322 323 325 325 323 322 321 320 321 321 323 327 330 329 329 330 330 329 327 325 325 324 321 316 299 294 293
296 292 289 287 291 292 293 295 297 294 295 294 294 294 295 296 296 297 296 294 293 293 296 296 295 298 297 296 296 304 307 307 307 307 307 307 308 310 310 311 314 316 320 321 322 323 323 328 330 332 332 334 337 338 340 341 341 339 340 341 340 338 336 333 333 330 329 327 325 322 321 320 320 321 320 319 320 319 320 319 321 323 324 324 323 324 327 328 326 325 324 323 315 301 293 294 293
296 294 289 291 292 294 296 295 295 295 294 295 295 294 294 295 295 297 295 295 296 295 295 297 298 299 299 298 297 304 304 305 306 307 306 306 307 308 309 311 313 316 319 318 317 322 323 325 327 330 331 332 335 337 338 340 340 339 339 339 339 338 337 335 333 330 327 325 324 322 321 320 320 320 319 318 318 317 317 318 319 320 319 317 319 316 316 318 319 314 313 309 298 297 293 292 293
297 296 295 294 294 294 297 297 297 295 295 294 293 293 296 296 297 296 296 293 295 297 298 296 298 299 299 299 298 300 302 303 305 306 307 307 306 307 309 308 309 309 311 316 319 321 322 324 326 329 329 330 332 336 337 338 338 338 338 338 338 338 337 335 333 330 328 325 324 324 323 322 321 320 320 319 317 316 316 315 316 315 313 315 316 313 311 312 311 308 307 303 299 296 294 293 292
294 294 295 296 296 296 296 296 296 294 295 294 293 295 295 296 295 294 296 296 299 302 299 299 299 300 300 298 298 298 298 300 302 304 306 306 306 305 306 308 308 308 311 315 316 319 322 323 324 325 328 329 330 332 336 336 337 338 338 337 336 336 335 334 331 330 328 326 324 323 323 322 321 320 319 318 317 315 315 314 314 313 314 313 312 313 311 310 309 307 305 303 298 296 294 294 292
298 295 293 296 297 297 297 298 295 293 293 294 295 294 294 294 294 294 294 299 300 301 301 299 299 300 300 298 297 298 298 297 299 302 303 305 305 306 306 305 305 306 307 312 313 317 318 322 324 323 325 327 330 331 334 335 335 336 336 335 335 333 333 333 331 330 327 326 324 323 322 322 321 319 318 317 316 313 314 313 313 312 312 312 311 313 311 307 307 306 304 300 298 295 294 293 294
296 295 293 296 295 295 295 293 292 293 294 294 294 294 296 295 295 295 298 300 301 302 300 299 298 298 298 297 297 296 296 297 297 298 299 299 300 302 303 303 303 303 305 308 311 314 318 320 322 323 324 325 328 331 332 334 333 334 334 334 334 330 332 333 332 328 326 325 324 323 322 322 321 320 318 317 315 314 312 312 311 311 311 310 310 309 311 308 306 305 304 303 299 297 292 293 293
292 294 293 293 294 293 295 294 294 295 296 295 293 294 296 294 294 295 298 300 301 300 297 297 296 295 294 296 296 296 297 297 298 299 299 300 300 300 300 301 302 302 303 304 307 313 315 317 321 323 324 325 325 327 330 331 330 331 332 332 334 331 331 331 329 327 326 324 324 323 322 322 321 320 318 316 316 314 311 310 310 310 310 309 309 310 308 309 307 302 302 302 300 296 293 294 294
294 292 292 292 293 292 293 293 296 295 294 294 294 295 295 294 295 291 293 298 299 297 297 297 295 294 294 295 297 298 299 298 299 299 300 300 300 299 299 300 300 300 302 303 303 309 312 316 319 321 323 321 322 324 325 328 325 327 327 329 330 329 329 328 327 327 325 324 323 321 319 319 319 318 317 315 314 314 311 311 310 309 308 308 309 309 306 308 305 305 303 302 300 297 294 293 293
296 294 292 293 292 293 293 293 294 294 295 292 293 292 293 291 294 293 298 300 298 295 297 297 295 294 295 298 298 299 299 299 300 299 298 298 298 299 299 299 299 300 300 302 304 304 311 317 319 319 321 320 322 322 322 323 324 324 323 324 325 324 324 325 324 323 321 322 319 318 318 317 317 316 316 314 314 313 311 311 310 309 309 306 308 306 305 305 305 303 300 300 298 296 294 292 293
294 293 292 290 291 293 295 294 295 294 293 292 292 292 290 291 290 296 298 298 296 295 296 294 293 294 297 298 298 298 298 299 299 298 298 299 299 299 298 300 299 300 301 302 305 305 307 311 315 317 318 317 320 322 322 319 319 320 322 322 322 320 321 321 321 321 321 320 318 318 317 317 315 316 313 313 312 311 310 310 309 309 309 308 307 305 304 301 300 298 297 295 294 293 292 292 292
294 293 291 290 289 288 295 294 293 293 293 291 293 285 285 291 294 297 298 296 294 294 294 293 294 295 297 297 297 297 298 298 297 297 298 298 299 299 299 300 300 300 301 303 307 309 310 311 314 315 316 317 317 319 318 317 316 316 317 318 319 319 318 318 318 319 319 318 318 317 317 316 315 314 314 311 311 310 309 309 309 308 308 306 306 305 304 300 299 296 296 293 295 293 292 292 291
290 290 291 286 285 284 291 294 292 292 293 291 294 286 285 290 294 296 296 295 294 293 293 293 294 296 297 296 296 296 296 297 297 298 298 298 299 299 299 299 300 300 301 302 303 306 307 310 312 314 312 313 313 314 315 315 313 314 314 316 317 317 317 317 315 316 316 317 317 316 316 315 314 314 313 313 311 310 309 308 308 309 307 306 305 304 304 300 299 297 294 294 291 291 291 291 291
287 288 283 282 285 285 289 294 293 292 292 291 292 285 287 291 293 295 296 295 294 293 293 293 296 296 296 295 295 295 295 296 296 297 298 298 298 298 298 298 299 300 300 300 301 302 303 304 306 309 311 311 310 309 309 312 312 311 312 312 314 313 314 316 314 316 316 313 315 315 313 314 314 313 312 311 311 309 309 309 309 307 306 305 305 302 302 300 298 296 293 293 291 290 290 290 291
284 287 282 283 283 284 289 293 292 292 292 292 292 287 285 290 291 293 294 293 293 292 292 294 295 295 295 294 294 293 293 294 295 295 296 297 297 298 298 298 298 299 299 300 300 300 300 301 301 303 305 310 310 311 310 310 311 311 311 312 312 312 313 312 312 313 314 314 313 314 313 314 314 312 311 310 311 309 308 309 306 306 304 304 303 301 301 300 297 297 292 292 291 291 289 288 289
283 284 284 284 285 285 284 290 293 291 291 289 290 288 287 291 291 294 295 295 293 293 292 294 295 294 294 293 292 292 292 292 293 294 295 296 296 297 297 298 298 298 298 298 299 299 299 299 300 300 301 305 309 310 310 311 311 311 311 310 310 311 310 311 312 313 312 312 312 312 312 312 312 312 310 309 309 309 309 308 304 304 302 302 302 299 300 297 295 296 294 292 291 291 289 289 289
282 283 284 285 285 285 287 287 290 293 291 291 289 288 288 290 292 293 295 295 293 292 292 294 294 293 293 292 292 292 292 292 292 294 294 295 295 295 296 296 296 297 297 297 297 298 298 298 299 299 299 300 303 307 309 310 311 311 310 310 310 310 310 310 310 311 308 310 309 309 310 310 310 310 308 308 309 308 307 305 305 303 302 300 300 299 296 294 293 293 295 293 290 290 290 289 289
288 288 288 285 285 286 287 290 291 293 291 291 289 291 292 291 291 293 294 294 294 292 293 294 293 292 292 291 291 291 291 291 293 293 294 294 294 295 295 295 295 295 296 296 296 296 297 297 297 298 298 299 300 301 305 308 309 308 309 310 310 308 308 308 309 308 309 309 308 309 309 309 308 309 308 306 307 305 305 305 305 302 301 300 299 297 295 293 294 293 292 292 291 289 289 288 287
289 288 287 286 286 286 289 290 294 293 291 288 291 289 287 289 291 294 294 292 292 291 293 292 292 291 291 291 291 291 291 291 293 293 293 293 294 294 295 295 294 294 295 295 295 295 295 296 296 295 297 298 298 298 299 302 304 304 304 305 303 304 305 306 308 307 308 307 307 308 308 308 308 308 308 306 306 305 305 303 303 302 301 299 299 299 298 295 294 294 293 291 291 289 288 286 287
288 287 285 286 285 286 289 291 291 292 291 286 285 289 289 291 293 293 293 293 291 291 292 291 291 291 291 290 290 290 291 292 292 292 292 292 293 293 294 294 294 292 293 293 293 294 294 295 295 295 296 296 297 297 297 299 300 300 300 300 300 301 304 305 304 304 304 305 304 303 303 305 307 307 306 307 306 305 304 301 301 302 300 299 300 299 297 295 292 291 290 289 288 290 289 287 288
287 286 285 284 286 287 290 291 291 290 291 287 285 289 289 292 292 292 292 291 291 292 292 291 290 290 290 290 290 290 290 289 290 290 291 291 291 292 292 293 293 293 292 292 293 293 293 294 294 294 295 295 295 296 297 296 297 299 300 299 300 299 299 299 299 298 300 302 301 300 299 300 302 303 305 305 305 304 303 302 301 300 300 300 298 297 297 295 293 292 290 291 288 286 287 286 288
286 287 285 285 287 287 284 287 288 290 290 288 287 287 289 290 291 291 291 291 291 291 291 290 291 290 289 289 289 289 288 288 288 289 289 290 290 291 291 291 291 292 292 292 292 292 293 293 293 293 294 294 294 295 296 296 296 296 297 297 298 298 296 297 298 299 298 298 300 300 300 298 299 299 298 300 301 301 301 300 299 297 298 298 297 297 296 295 294 292 290 290 290 288 286 287 288
286 288 287 287 287 287 288 288 288 288 288 288 287 286 285 289 288 288 290 291 291 291 290 290 290 290 290 290 289 289 288 288 288 288 288 288 289 289 289 290 291 290 291 291 291 291 292 292 292 292 293 293 294 294 295 295 296 296 296 297 297 296 297 297 297 296 296 296 297 298 299 297 297 296 296 296 298 298 298 298 298 297 296 297 297 297 297 296 295 294 293 291 290 291 289 286 287
286 286 290 290 289 288 286 287 288 283 283 284 287 279 276 282 286 287 288 288 288 289 288 288 289 289 289 288 288 288 289 288 288 287 287 287 288 288 289 289 289 290 290 290 291 291 291 292 292 292 292 293 293 293 294 294 294 294 294 293 292 292 292 293 293 293 293 294 294 295 296 297 297 297 294 295 295 296 296 296 295 295 294 295 296 297 297 296 295 293 293 292 291 290 292 289 286
285 288 289 291 289 288 287 286 285 281 279 286 286 282 276 281 284 286 287 286 286 287 287 287 288 288 288 288 288 287 287 287 288 287 287 287 287 287 288 288 288 289 289 290 290 290 291 291 291 292 292 292 292 292 293 293 292 292 292 291 291 291 290 291 291 292 292 293 293 294 294 295 295 296 297 295 295 293 294 293 294 294 293 292 292 293 294 295 295 294 294 292 292 292 290 288 287
284 286 287 288 287 287 285 285 286 282 282 283 285 283 281 279 284 287 287 286 285 286 286 286 287 287 287 287 287 287 287 287 286 286 287 287 286 286 286 287 287 288 288 289 289 290 290 290 291 291 291 291 291 292 291 292 291 291 291 291 291 290 290 290 291 291 292 292 292 292 293 293 293 294 294 295 295 295 294 295 292 292 292 291 291 291 292 293 294 294 293 293 292 292 291 290 289
286 287 286 286 287 286 284 285 282 282 282 279 280 284 280 277 281 286 287 284 283 284 285 285 286 286 286 286 287 286 286 286 286 286 286 286 286 286 286 286 287 287 288 288 288 288 289 289 290 290 290 290 291 291 291 291 291 290 290 289 289 290 290 290 290 291 291 291 291 291 291 291 292 292 292 292 293 293 293 294 294 293 293 292 291 290 289 290 290 290 292 292 291 291 291 291 290
289 287 286 285 285 284 283 280 283 279 279 277 281 283 278 278 280 283 284 284 283 284 285 285 286 286 286 286 286 286 286 285 286 285 285 285 286 286 286 286 286 286 287 288 288 288 288 288 289 289 289 290 290 290 290 290 290 290 289 288 288 288 289 289 289 289 289 289 289 289 290 290 290 290 291 291 291 291 291 292 292 293 293 293 291 290 289 288 288 288 289 290 292 291 291 290 290
288 287 286 283 282 281 279 279 278 277 274 280 282 283 283 276 280 283 283 284 285 285 284 285 285 285 286 286 285 285 285 285 284 284 284 285 285 285 285 285 285 285 286 286 286 287 287 287 287 287 287 288 289 288 288 288 289 289 288 288 288 287 287 288 287 287 288 288 288 288 288 288 289 289 289 289 290 290 290 290 290 291 292 292 292 291 291 290 290 289 289 287 288 289 290 291 291
288 285 282 284 282 279 276 273 277 273 272 276 280 283 283 275 277 281 283 285 287 286 284 285 284 284 285 285 285 285 284 284 284 283 284 284 284 284 284 284 284 284 285 285 285 285 286 286 286 286 286 286 287 287 287 287 287 287 287 287 287 287 287 286 286 285 286 286 286 286 287 287 287 288 288 288 288 289 289 289 289 290 290 291 292 292 292 291 290 288 288 287 287 287 288 288 289
285 283 284 279 273 273 273 273 272 272 275 277 279 282 280 281 282 283 283 284 287 286 287 286 285 284 284 284 284 284 284 283 283 282 282 283 283 283 283 283 284 283 283 283 284 284 284 284 285 285 285 285 286 286 285 285 285 285 286 286 286 286 286 285 285 285 285 285 285 285 285 285 285 286 286 286 287 287 287 287 288 288 288 289 290 290 290 290 290 289 289 288 287 287 288 288 287
284 285 280 276 272 271 266 268 267 269 274 277 280 282 280 280 281 283 282 284 286 286 286 286 285 285 284 284 284 283 283 282 282 282 282 282 283 283 283 283 283 283 282 283 283 283 283 283 283 284 284 284 285 285 285 285 285 285 285 285 285 285 284 284 284 284 284 284 285 284 284 284 284 284 285 285 286 286 287 287 287 287 287 288 288 288 289 289 289 289 289 289 288 289 287 286 287
285 283 286 282 275 269 268 267 272 273 275 276 277 276 272 276 279 281 283 283 285 286 286 285 284 284 284 283 283 282 282 282 282 282 282 282 283 282 283 283 283 283 282 282 282 282 282 283 283 283 283 283 284 284 284 284 284 284 284 284 284 285 284 283 283 284 284 283 283 283 283 283 283 284 284 285 285 285 285 286 287 287 287 287 287 287 288 288 288 288 288 288 288 288 287 286 286
283 281 283 278 280 279 276 272 269 268 272 273 274 276 276 278 282 283 283 283 284 284 284 284 283 283 283 282 282 282 282 282 281 281 282 282 282 282 282 282 283 283 282 281 281 281 282 282 282 282 282 282 283 283 283 283 283 283 283 283 283 284 284 284 283 283 283 283 283 282 282 282 283 283 284 284 284 284 285 285 286 287 287 287 286 286 285 285 285 285 286 286 286 288 286 286 286
282 284 281 284 285 285 278 275 274 273 273 275 271 279 280 282 283 282 282 283 282 282 282 282 282 282 281 282 282 282 282 281 281 281 280 281 281 281 281 282 282 283 284 283 281 281 282 282 281 281 281 281 282 282 282 282 283 282 282 282 282 282 282 281 282 281 282 282 282 282 282 282 282 283 283 284 284 283 284 284 285 285 286 286 286 286 285 285 284 284 285 285 285 286 285 285 285
285 280 284 285 287 284 280 273 270 271 271 273 274 275 276 278 273 280 280 279 281 281 282 282 282 281 282 282 282 282 282 282 281 281 281 280 281 282 283 283 282 283 284 285 285 284 283 283 283 283 283 283 284 284 284 284 284 282 281 281 281 282 282 282 282 281 281 281 281 281 280 281 281 282 282 283 282 282 283 283 283 283 284 285 285 285 285 286 285 285 284 284 284 284 284 285 285
285 283 286 286 278 278 279 274 271 269 268 269 272 275 276 278 278 278 279 280 281 281 281 281 282 282 282 282 283 282 282 283 282 282 282 283 283 283 282 282 282 283 285 284 285 284 284 283 284 284 284 285 284 285 285 285 284 283 283 282 281 282 283 282 281 281 281 281 282 282 282 281 281 280 281 281 281 281 282 282 282 282 283 284 284 284 285 285 285 285 285 284 284 284 284 284 285
287 287 286 283 281 275 274 278 273 274 268 271 266 272 275 279 280 280 282 282 282 282 281 282 282 283 283 283 283 283 283 283 282 282 282 282 281 280 280 281 282 283 284 286 286 286 286 286 284 284 284 283 283 284 284 284 284 285 284 283 283 283 282 282 282 281 282 280 280 281 282 282 282 282 281 281 281 281 282 282 283 283 282 282 283 283 284 284 284 284 285 285 285 284 284 284 285
284 284 281 283 281 281 280 279 276 276 268 268 269 270 273 275 281 282 283 284 283 283 282 283 283 284 284 284 283 283 283 282 282 281 281 282 283 282 282 283 284 284 284 285 285 286 286 285 283 283 283 283 283 283 284 283 283 283 283 283 283 282 282 282 282 281 281 281 281 281 281 281 281 281 281 281 281 281 281 282 282 283 283 283 283 283 283 283 283 283 283 284 284 285 284 284 284
283 285 283 284 281 278 276 276 280 273 276 269 271 273 274 279 285 284 283 284 284 284 284 284 284 284 284 283 283 283 283 282 282 282 283 283 283 284 283 283 284 283 283 282 283 282 282 283 283 282 281 281 281 281 281 282 282 282 281 281 280 280 280 280 280 280 280 281 281 281 281 281 281 281 280 281 281 281 281 281 281 281 282 282 282 282 282 282 282 281 282 283 284 283 283 283 284
Wind_Speed
6 6 5 4 1 2 2 5 1 3 4 1 1 1 1 1 0 1 0 2 0 2 2 0 0 2 1 1 2 2 3 3 6 3 1 2 2 2 4 3 4 8 11 9 10 10 11 13 15 16 17 17 17 17 16 16 15 14 14 14 15 15 15 15 14 14 13 13 12 12 11 11 10 9 9 9 9 9 9 8 7 7 8 9 9 9 9 10 10 10 9 9 8 8 8 8 8
4 5 4 3 0 2 1 2 3 2 6 4 0 0 0 2 2 2 2 2 2 1 2 1 0 0 2 2 1 1 3 7 7 1 2 3 4 1 5 4 7 11 9 9 9 10 10 10 15 15 17 17 17 17 17 16 15 15 15 14 15 15 15 15 14 13 13 12 12 12 11 10 10 10 10 9 9 10 10 9 8 8 7 9 9 8 8 9 9 9 9 8 8 7 7 7 7
3 6 5 5 3 4 1 4 1 2 5 2 2 2 2 1 0 3 6 5 4 3 1 0 1 0 0 3 1 2 1 0 1 1 1 2 2 4 6 4 6 8 10 8 9 10 9 10 14 15 18 16 18 17 17 15 15 15 15 15 15 15 14 14 14 13 13 12 12 11 11 11 12 12 12 12 12 11 10 10 9 8 7 8 8 8 9 9 7 7 8 7 7 6 6 6 6
2 1 1 2 0 4 1 3 4 4 1 3 1 2 0 3 3 5 5 6 3 0 0 1 0 1 1 1 1 1 3 1 4 4 0 3 8 5 7 6 6 6 6 8 9 9 9 11 15 15 17 15 18 16 16 16 16 16 15 15 15 14 14 13 13 13 12 12 11 11 11 12 13 13 12 12 12 11 11 10 10 10 9 8 9 8 7 6 5 5 6 6 6 6 6 6 6
3 2 1 3 3 3 1 1 3 2 1 4 2 3 3 4 3 4 3 4 3 1 0 0 0 1 2 1 0 0 2 2 3 4 1 3 1 4 6 6 7 8 8 8 9 9 8 14 15 15 16 17 18 17 15 16 16 15 15 15 15 14 14 13 13 12 12 12 11 11 12 12 13 13 12 12 11 11 11 10 9 7 5 5 6 5 5 4 4 3 3 4 5 6 6 6 6
3 4 2 2 1 2 5 2 2 1 6 5 1 2 3 6 3 4 2 2 1 2 1 1 0 0 1 2 3 0 3 1 1 1 3 4 5 5 7 7 7 7 7 7 8 8 8 14 15 15 16 18 19 16 15 15 16 16 14 15 15 15 14 14 13 12 12 11 12 12 12 13 14 12 12 12 11 11 10 9 8 6 5 5 4 5 5 4 3 3 3 4 4 4 5 6 6
2 4 3 4 2 4 3 2 2 3 7 6 2 2 6 5 5 3 2 1 1 1 0 1 1 1 1 2 1 2 2 1 1 1 6 1 5 6 7 7 8 7 7 7 7 8 9 14 15 16 16 17 18 17 16 15 17 15 14 15 16 15 14 14 13 12 12 12 12 12 12 13 13 12 12 13 11 10 10 9 8 5 4 3 1 3 6 5 4 3 2 3 3 4 4 4 5
1 2 2 3 1 3 1 1 4 4 2 4 1 2 5 5 4 0 0 1 1 1 0 1 0 2 3 3 1 2 3 2 3 6 1 4 5 5 7 8 8 7 8 7 7 7 10 15 15 16 16 16 16 16 16 16 17 15 14 15 15 15 15 14 14 13 13 12 13 13 14 14 13 12 11 10 11 8 8 8 5 6 4 3 2 1 1 6 4 1 1 1 3 3 3 4 4
4 2 0 5 2 2 2 2 3 3 6 3 3 5 5 4 2 2 0 1 2 0 1 1 2 2 2 4 3 2 3 2 2 2 2 4 6 5 6 7 9 8 8 7 7 7 8 13 15 16 16 16 16 16 17 18 18 17 15 15 14 15 15 14 14 12 12 13 13 14 14 13 12 12 12 11 10 9 8 6 6 3 5 2 2 4 5 9 2 3 3 2 2 1 2 3 3
1 3 2 2 2 1 3 2 1 2 2 4 2 2 1 2 0 1 1 1 0 0 2 2 1 1 1 3 5 2 0 0 1 2 1 1 2 3 5 6 6 10 8 8 8 8 8 13 15 15 15 16 16 17 18 17 17 17 16 16 15 14 13 13 12 11 11 12 13 15 14 14 13 14 13 12 11 10 9 8 7 6 6 5 8 4 4 4 3 4 3 2 1 0 2 2 2
1 4 2 2 5 1 0 4 4 6 4 4 4 4 5 1 1 0 0 1 1 0 1 2 1 3 1 3 3 2 3 0 2 4 2 2 1 3 4 3 4 7 9 9 8 8 8 10 15 15 14 16 16 17 17 17 17 17 16 16 15 14 13 12 12 11 11 10 13 15 15 14 14 14 14 13 12 11 11 9 8 7 6 6 3 5 5 4 3 3 4 4 2 1 1 1 2
2 2 3 2 1 2 3 2 6 7 7 3 1 3 1 1 1 1 1 2 1 2 1 3 1 3 0 1 2 2 3 2 4 2 3 1 2 2 2 2 2 4 7 8 8 8 8 9 11 13 15 15 16 16 17 17 17 17 17 16 16 15 14 13 12 11 11 11 13 12 13 13 13 14 14 13 12 11 10 9 8 7 6 4 5 4 5 5 4 3 5 5 2 1 1 1 2
4 1 4 2 1 1 1 1 6 4 4 1 2 1 1 0 0 1 2 1 0 3 5 7 1 2 2 1 4 4 1 7 5 4 3 3 3 2 1 2 3 4 5 6 8 8 8 9 11 11 12 16 15 16 16 17 17 17 17 17 16 15 15 14 13 11 11 12 13 13 12 11 12 13 12 12 10 10 10 9 7 7 6 6 6 6 5 5 5 5 6 4 2 1 1 1 2
2 1 3 2 1 0 1 3 2 2 3 2 2 2 1 0 2 3 0 2 5 0 3 6 1 2 3 2 6 5 5 3 3 2 1 2 1 0 2 1 2 4 5 6 8 8 8 8 10 10 11 11 11 12 15 16 16 17 17 17 16 16 15 14 14 13 12 12 12 11 12 10 10 12 11 11 10 9 9 8 7 8 8 7 7 6 5 5 5 5 6 4 2 3 2 2 2
0 1 3 2 2 1 2 0 0 1 1 1 2 1 2 3 1 1 2 2 6 3 1 2 2 3 3 2 6 2 2 3 4 1 2 2 1 0 0 1 0 3 4 5 6 8 8 8 9 9 9 9 10 9 9 12 16 16 17 17 16 16 15 14 14 13 13 13 13 12 10 10 12 11 11 11 11 10 9 8 8 7 8 9 8 7 6 6 6 6 6 4 4 3 3 2 3
3 4 3 0 1 1 3 1 0 2 3 0 4 2 2 3 0 0 4 3 2 1 1 4 1 3 2 2 7 5 2 3 2 3 4 3 1 1 2 1 1 1 3 4 5 6 7 8 7 8 8 9 9 8 9 10 13 15 15 16 16 16 15 14 14 14 14 14 13 12 11 10 11 9 13 10 11 11 10 8 8 7 9 9 9 9 8 8 7 7 6 5 5 4 3 3 2
3 4 0 3 3 2 3 2 1 2 6 3 6 2 1 2 1 2 0 0 2 6 2 2 3 0 3 5 2 1 2 3 4 4 4 2 1 0 1 1 2 3 2 4 4 5 5 8 8 7 8 9 9 8 8 9 10 12 11 13 14 14 14 14 14 14 13 12 11 12 11 8 6 6 9 7 10 8 10 10 9 8 8 7 7 8 9 8 8 7 6 6 6 5 4 3 2
2 1 3 1 4 1 5 4 4 0 1 4 5 1 1 4 3 3 3 2 1 4 6 6 3 5 4 4 3 3 3 5 4 6 3 3 0 3 3 4 3 7 6 6 4 4 6 7 9 9 7 9 8 7 6 6 7 10 9 8 8 9 10 11 11 10 9 7 11 10 7 7 6 6 7 8 7 8 9 12 11 9 9 7 8 8 8 9 9 8 7 7 6 6 5 2 2
2 1 2 6 5 6 5 3 2 0 3 4 4 2 3 4 0 2 2 3 3 6 7 5 9 7 7 8 6 1 4 4 4 5 6 7 6 8 8 6 6 4 6 6 6 6 7 7 6 8 8 8 9 8 7 6 7 7 8 8 8 9 8 8 7 8 7 7 7 7 6 6 7 7 7 8 7 10 10 12 11 11 10 9 8 8 8 8 9 9 8 7 7 6 3 2 0
2 4 3 6 7 5 5 4 7 4 3 5 5 2 0 4 0 0 2 6 1 7 11 9 7 12 6 4 4 1 3 3 4 5 7 8 8 9 7 7 7 8 9 8 8 5 6 7 8 9 9 9 9 8 7 6 6 7 7 7 7 7 7 7 6 6 6 6 7 6 6 6 6 6 8 12 10 7 8 11 12 11 10 9 10 7 7 8 10 9 9 7 6 3 2 1 0
2 2 4 5 4 2 6 5 6 5 3 3 3 2 6 5 3 1 4 9 10 6 7 9 12 13 11 5 4 1 2 4 4 5 6 7 8 7 9 11 11 11 8 4 4 6 7 8 7 8 7 8 9 8 8 7 6 6 6 6 7 6 6 6 5 5 5 5 5 5 4 4 5 5 6 6 6 6 5 6 6 6 6 5 8 6 5 5 6 5 3 6 3 3 3 2 1
3 7 5 6 1 1 9 7 7 3 3 4 5 6 8 1 1 1 0 5 12 7 8 6 10 11 9 10 5 3 4 5 7 7 10 11 11 12 9 8 6 3 3 6 10 8 8 8 8 7 6 7 8 8 8 7 7 6 7 6 6 6 6 6 6 6 5 5 4 5 5 5 5 5 5 6 5 6 6 5 6 6 5 6 6 6 5 6 5 5 6 5 4 3 3 3 2
4 3 4 5 6 5 2 2 2 4 4 5 5 3 3 1 4 3 5 10 11 11 7 7 8 10 10 4 5 5 4 6 7 9 11 10 11 10 10 9 8 9 7 10 8 7 7 7 7 6 8 7 8 8 7 6 7 6 6 6 6 6 6 6 6 6 6 5 5 5 5 4 4 4 5 5 5 5 5 5 6 5 6 6 5 6 6 6 6 6 6 6 4 4 3 2 3
4 7 1 5 6 9 7 5 6 5 3 5 3 4 6 4 9 1 4 11 13 14 10 6 8 10 8 6 5 7 7 5 7 8 6 8 7 8 6 7 6 5 3 8 7 6 6 9 8 7 8 8 8 7 8 7 7 7 6 5 6 6 6 7 6 6 6 7 6 6 6 6 6 5 4 4 4 4 5 5 5 5 5 5 5 6 6 5 5 6 6 4 5 4 4 3 4
5 5 4 5 0 5 5 5 5 7 9 6 3 5 12 3 5 3 14 15 15 15 5 5 5 6 8 6 6 6 6 7 6 4 4 4 5 5 5 4 2 1 5 5 5 4 8 7 5 8 7 8 7 7 8 7 6 7 7 7 7 6 6 6 6 5 5 6 7 7 6 6 6 6 6 5 4 5 4 4 4 5 5 5 5 5 6 6 5 6 6 6 5 5 4 4 4
4 5 0 3 4 5 7 7 7 8 6 1 3 10 12 5 4 6 17 16 17 7 5 5 3 4 5 6 9 8 11 11 10 11 8 5 8 11 10 8 6 4 4 5 4 5 4 2 6 9 9 9 7 7 7 6 6 7 7 7 8 6 5 5 4 5 5 5 5 6 8 7 7 7 7 6 7 6 5 4 4 4 5 5 5 6 5 6 6 5 5 6 6 5 4 5 4
2 3 3 4 6 4 3 3 9 6 4 3 4 13 14 2 3 7 4 12 6 5 7 7 5 6 6 9 11 9 12 12 10 5 11 10 11 10 9 9 10 7 6 5 3 3 3 4 6 7 6 5 5 7 6 6 5 7 6 5 5 6 6 5 5 5 5 5 5 5 5 5 6 5 6 7 6 6 6 5 5 4 5 5 5 5 4 5 5 6 7 6 6 6 6 4 5
0 1 5 6 6 5 7 6 13 3 6 3 7 8 7 2 1 9 11 11 2 5 7 8 7 5 10 10 10 7 11 9 8 10 13 13 10 8 9 9 9 8 9 9 7 4 2 5 5 5 5 4 5 5 5 6 6 6 4 5 5 5 5 5 5 5 5 5 5 5 5 5 5 5 5 5 6 6 6 6 6 6 6 5 5 5 5 3 5 5 5 5 5 5 6 5 5
2 3 6 7 7 7 9 8 7 2 5 2 6 1 6 1 5 13 13 7 4 6 9 5 5 8 9 9 11 11 9 8 10 12 10 7 7 7 9 8 8 7 6 6 8 7 5 2 3 2 3 4 5 6 5 3 3 4 5 5 5 4 5 5 5 6 6 5 5 5 6 5 5 6 6 7 6 6 6 6 5 6 5 5 5 4 5 4 3 3 4 2 3 3 4 5 3
2 2 0 7 5 7 14 1 2 2 4 5 6 3 6 8 12 12 10 5 5 6 6 5 6 9 8 8 9 9 10 11 12 10 8 8 8 9 10 10 9 8 8 8 12 13 8 5 3 2 1 1 1 1 2 3 3 3 3 4 4 5 6 6 6 5 6 6 6 6 6 6 6 5 6 5 6 6 6 6 6 6 5 4 4 5 5 4 4 3 4 3 4 5 6 5 5
3 2 1 4 4 6 7 0 1 5 2 7 4 3 7 9 12 10 7 1 2 6 4 6 8 8 7 7 8 10 11 9 10 10 10 10 8 8 9 10 12 11 11 13 13 9 13 11 8 6 6 4 3 3 2 1 1 3 3 3 4 4 5 6 4 4 5 6 5 6 6 6 6 6 6 6 6 6 6 6 6 7 6 5 6 5 6 4 5 6 4 5 3 3 4 4 5
1 2 5 3 4 7 11 8 3 3 1 3 5 3 8 8 10 12 9 1 0 5 6 7 8 7 7 7 8 8 8 8 9 10 10 9 9 8 10 11 11 13 12 9 10 11 14 12 11 10 10 8 5 4 3 3 2 2 2 3 3 3 4 4 5 5 5 4 5 5 5 5 5 6 6 6 6 6 6 6 7 5 5 6 6 6 5 6 6 5 4 4 5 5 4 6 5
3 4 4 3 2 5 7 5 2 5 2 1 6 6 2 5 8 9 8 4 2 4 5 7 8 8 7 7 7 6 7 9 10 11 11 9 9 8 8 10 10 11 11 13 11 12 13 12 13 13 12 10 8 7 6 5 6 5 5 5 4 3 2 2 2 3 4 5 5 6 5 6 6 6 6 6 6 6 6 6 5 5 4 6 6 6 6 6 7 6 4 5 4 6 5 5 4
5 0 6 4 4 1 3 8 4 1 3 2 2 2 5 6 8 11 13 8 7 7 5 7 7 7 7 7 8 8 9 9 11 10 10 9 8 9 8 8 10 11 12 12 12 12 10 10 10 11 11 10 8 7 7 6 6 7 6 6 6 6 5 4 4 4 3 1 2 3 4 4 5 4 5 5 5 5 5 5 4 4 5 5 5 5 6 4 4 6 7 6 7 6 6 6 6
5 2 3 6 3 5 8 1 3 4 1 1 2 4 8 11 10 11 12 9 6 5 6 7 7 7 6 7 8 9 9 11 9 7 8 9 9 8 8 9 11 11 11 13 14 13 12 11 11 13 12 11 10 9 8 7 7 6 6 7 7 6 6 6 5 5 3 4 2 1 1 1 1 2 2 3 4 4 4 3 4 4 5 5 5 5 4 4 4 4 6 6 4 4 5 5 5
8 7 6 3 4 4 4 7 5 1 5 5 5 8 9 6 8 10 4 2 2 3 8 8 7 7 7 8 8 8 9 10 5 7 7 7 7 8 8 9 10 11 12 12 14 14 13 13 11 12 12 10 9 9 8 8 7 8 8 7 9 7 7 6 6 5 5 4 3 3 2 2 2 2 2 2 1 2 2 3 3 3 3 4 5 5 5 6 8 7 7 6 6 4 1 2 2
2 0 1 6 5 6 6 5 9 0 3 5 7 4 2 7 9 9 3 2 4 4 7 7 7 7 7 8 9 9 10 7 4 5 6 6 8 8 8 10 11 13 14 14 14 14 13 11 12 13 10 11 10 9 8 8 7 6 7 7 5 5 6 6 7 6 6 5 3 3 2 2 1 2 3 4 4 3 4 2 2 2 3 4 5 7 7 8 6 6 4 3 6 5 5 2 3
4 4 3 7 3 9 6 5 3 2 2 3 0 2 6 7 8 8 7 8 8 4 9 8 9 7 7 8 9 9 6 4 5 8 9 9 11 12 12 12 13 17 14 14 14 12 12 12 13 11 10 11 10 8 6 7 5 2 3 4 4 7 8 8 8 8 7 5 5 4 3 1 1 0 1 1 0 1 1 2 2 4 4 5 5 2 1 2 2 3 3 3 2 7 6 5 5
3 5 5 4 8 5 7 7 2 1 1 7 1 2 7 10 4 9 10 9 6 7 7 7 8 7 7 7 8 7 7 6 7 8 9 10 11 12 11 11 12 11 11 12 11 12 13 12 11 10 11 10 10 10 9 6 5 6 6 5 5 4 4 4 4 5 7 7 5 6 4 2 1 1 1 0 1 1 2 2 3 1 2 3 3 4 4 4 5 5 5 6 5 2 3 2 6
4 2 1 7 4 2 6 4 1 2 1 4 3 5 7 5 8 10 7 7 7 9 11 9 5 6 7 6 5 7 7 7 10 9 9 10 10 11 11 12 11 11 12 12 12 12 10 11 11 11 11 11 11 11 9 7 5 5 6 7 7 8 4 5 8 10 11 11 10 7 6 6 3 2 2 2 1 1 0 1 0 2 3 2 3 4 3 5 4 4 5 6 5 4 3 6 6
3 6 6 6 6 6 8 6 3 3 2 1 2 4 6 8 3 4 5 6 9 7 9 9 7 6 5 6 8 6 7 6 7 8 9 9 11 11 10 9 9 12 11 11 11 10 8 10 10 10 10 10 10 11 11 9 11 11 9 9 9 9 10 11 10 10 10 9 10 10 9 7 4 3 2 2 1 2 1 1 1 1 1 2 3 4 5 6 6 5 6 5 6 7 7 5 4
3 6 11 10 7 6 4 2 3 6 3 1 1 3 4 2 1 6 4 5 7 4 7 6 4 4 4 8 7 5 6 5 5 6 7 7 8 8 10 10 11 10 11 9 8 9 9 9 10 10 10 11 11 11 11 10 10 10 11 11 10 8 9 10 10 8 9 9 7 6 11 10 10 8 4 3 2 1 2 1 1 1 1 1 2 4 3 3 4 5 7 8 8 7 8 7 5
1 7 7 10 7 4 2 1 3 1 2 1 2 0 7 6 2 5 4 5 6 3 4 3 3 3 4 5 5 5 5 5 5 6 6 9 8 9 10 10 9 10 8 6 8 9 10 9 9 10 10 10 10 11 11 9 10 9 9 8 7 7 7 5 4 5 7 7 7 11 9 10 11 11 10 9 7 4 3 3 1 1 1 1 1 2 3 5 5 5 4 5 7 7 5 8 8
4 2 4 4 4 3 3 3 4 4 1 5 1 1 6 5 5 4 5 8 5 4 3 3 3 3 4 4 4 4 4 4 4 5 6 6 6 7 8 7 8 7 5 6 8 9 10 10 10 11 10 11 11 10 12 11 10 9 10 9 8 8 8 6 7 7 6 7 10 10 9 10 10 10 11 11 10 10 9 8 5 3 2 2 1 2 4 4 3 3 4 5 4 4 5 8 8
4 1 5 3 4 3 3 2 1 1 1 8 1 0 1 5 5 2 7 9 2 3 4 3 3 2 4 4 4 4 4 4 4 6 6 6 6 6 5 7 5 8 8 8 8 8 7 8 9 11 13 12 11 12 12 12 10 10 9 8 10 8 7 7 6 7 8 8 10 10 10 9 10 10 10 10 10 10 9 8 7 7 6 4 0 2 3 3 4 4 4 4 5 6 6 7 7
3 3 5 6 6 5 2 2 2 2 1 7 5 5 5 7 3 5 3 1 7 7 6 5 3 3 3 4 4 4 4 4 4 4 5 5 5 5 4 5 9 8 6 6 7 8 9 8 11 13 13 10 10 12 11 12 11 9 11 10 10 9 7 7 7 9 9 8 9 9 8 9 9 10 10 10 11 11 10 9 9 7 6 6 4 2 2 3 4 4 5 5 5 6 5 6 8
4 5 2 3 7 3 3 6 2 2 4 8 9 9 9 6 4 8 10 6 5 8 3 3 3 2 3 3 3 3 3 3 4 4 4 4 4 4 5 8 6 7 7 9 10 10 9 10 10 13 11 10 11 11 11 11 10 10 10 9 10 10 9 10 11 12 10 11 11 10 9 8 7 8 8 9 9 10 10 9 9 8 7 6 6 6 4 3 4 3 4 4 5 6 6 7 8
4 2 3 3 4 7 3 4 4 1 8 6 7 9 8 8 5 3 3 5 9 16 15 13 9 6 5 4 3 3 3 3 3 4 4 4 5 6 6 8 7 7 9 10 9 8 9 8 8 11 12 11 10 9 10 10 9 10 9 10 11 10 10 10 11 11 10 10 9 9 7 7 8 7 8 9 10 10 9 8 8 9 9 8 8 6 6 5 4 3 3 4 5 5 5 6 6
5 5 5 3 4 5 2 2 2 7 9 2 2 7 2 11 5 1 4 6 5 6 12 15 12 9 6 4 4 3 3 3 3 3 3 4 6 6 7 6 7 9 8 7 8 7 6 7 8 12 12 10 10 10 11 11 11 11 10 10 9 9 10 10 9 9 7 8 7 8 9 8 8 9 9 8 8 9 8 8 9 8 8 8 7 7 6 6 6 5 4 4 4 5 6 6 6
6 6 5 5 1 2 4 5 2 5 6 5 2 2 3 2 2 1 3 4 0 7 7 7 9 10 8 5 4 3 3 3 3 3 4 4 4 4 4 6 6 6 7 8 7 8 7 8 8 10 9 8 8 10 10 11 11 10 9 9 9 8 9 8 7 7 6 6 6 6 6 6 6 6 7 7 6 6 6 6 6 7 7 7 7 7 6 6 5 5 5 6 6 6 5 6 7
9 3 10 9 8 5 5 5 6 7 7 1 3 2 6 4 2 3 2 2 2 6 7 5 5 5 5 4 4 4 4 3 3 4 4 4 4 3 4 4 5 5 6 7 6 6 5 5 6 8 10 9 9 8 8 9 8 8 8 8 8 7 7 7 6 6 6 7 6 7 6 6 6 7 6 6 5 6 6 7 7 7 8 8 7 8 7 7 7 6 5 5 5 6 6 6 6
1 3 5 5 7 5 6 6 3 2 2 3 2 5 1 2 0 1 2 3 4 5 6 6 6 4 5 4 4 4 4 4 3 4 4 3 3 3 4 4 4 5 5 5 5 3 4 4 6 8 8 6 6 7 6 5 5 6 6 7 6 5 5 5 6 5 5 4 4 5 6 5 6 6 6 7 8 7 7 8 7 7 7 7 7 6 7 6 6 6 6 6 6 4 5 6 7
2 5 6 8 3 5 0 2 0 2 2 9 2 1 1 0 1 1 1 5 3 4 4 5 5 5 4 5 4 4 4 4 4 4 3 3 3 4 4 4 4 5 4 4 4 4 5 7 7 7 7 5 5 4 4 4 4 5 5 4 4 4 4 4 3 2 2 3 3 3 3 5 5 5 6 6 8 8 7 7 8 8 8 7 7 6 5 5 5 6 6 6 7 6 5 6 6
6 2 8 1 2 3 3 5 2 1 6 6 2 6 2 2 6 3 1 4 5 4 6 6 5 4 6 5 5 5 5 4 4 3 3 3 3 3 3 3 2 2 2 3 3 3 3 4 5 6 5 5 3 3 3 4 4 4 2 2 1 0 1 0 0 1 1 1 2 1 2 3 3 3 3 4 4 6 6 7 7 8 7 7 7 6 6 6 5 6 5 5 5 4 5 6 5
4 3 2 3 4 2 2 5 4 2 4 4 4 2 3 8 6 4 8 10 12 9 6 6 6 6 7 5 5 5 4 5 5 4 4 3 3 3 2 2 1 1 1 1 2 3 4 3 3 3 3 3 3 4 4 4 3 2 2 3 3 4 3 3 3 3 2 4 5 4 4 4 3 3 3 4 4 5 5 6 5 7 8 8 7 7 6 6 6 6 6 6 6 5 5 6 7
0 0 0 0 1 2 3 6 4 3 5 1 6 3 7 5 6 16 17 16 14 11 8 10 9 10 9 7 7 7 6 6 5 4 4 4 4 4 4 3 3 2 2 1 1 1 1 1 2 1 1 0 1 1 1 1 1 1 3 3 3 3 3 3 4 4 5 4 5 5 6 7 7 7 6 6 6 6 7 7 5 5 6 6 7 8 7 6 6 6 6 6 7 5 5 6 7
0 0 2 1 0 3 2 1 4 4 3 4 3 7 5 3 3 9 14 15 16 16 13 10 10 9 8 8 7 7 6 6 5 5 4 4 4 3 3 2 1 0 0 1 0 0 1 1 3 3 2 2 2 2 1 2 1 2 2 3 4 3 4 3 3 4 3 4 5 5 5 5 5 7 6 7 8 9 9 9 9 8 7 7 7 8 7 7 7 7 7 7 7 6 6 6 5
7 9 8 9 4 4 6 10 2 1 4 4 3 11 4 4 0 3 5 6 10 9 12 12 9 10 8 6 6 7 7 5 5 5 5 4 4 4 2 1 0 0 1 2 2 1 3 3 4 3 3 3 3 3 2 3 2 2 2 3 4 4 4 4 4 4 4 4 5 5 5 5 5 7 5 7 7 7 7 8 9 10 11 10 9 8 8 6 7 8 8 6 8 8 8 8 5
Wind_Direction
323 320 309 307 25 102 61 4 88 313 61 344 339 12 244 306 275 53 308 325 348 252 222 347 122 98 171 202 194 202 203 121 209 120 226 235 285 263 215 169 155 138 153 160 170 176 181 186 180 176 176 175 175 173 170 170 165 165 164 164 160 163 163 163 162 162 161 162 163 163 164 163 160 157 154 152 149 141 132 125 117 121 124 121 124 122 112 99 88 81 75 74 72 70 71 72 71
313 322 321 333 24 75 293 111 96 359 40 45 253 105 244 312 39 177 189 189 203 211 226 191 5 289 46 143 200 127 287 221 169 193 255 231 304 204 208 182 158 153 154 159 167 173 178 185 181 178 176 176 176 173 171 170 167 164 166 166 166 167 165 166 165 166 168 169 169 170 168 163 160 155 151 148 142 140 134 128 117 116 125 125 122 120 110 96 85 77 70 68 67 66 65 66 66
331 348 352 23 27 63 56 41 44 50 73 58 281 204 331 40 174 235 226 213 230 232 76 63 225 37 24 34 359 142 263 299 217 293 209 326 101 247 195 196 169 154 155 160 165 172 175 181 180 180 178 177 176 175 173 168 167 167 168 169 170 170 169 169 169 171 174 175 174 175 168 165 157 151 146 141 136 133 134 128 124 125 120 117 112 111 111 92 86 78 74 63 62 62 62 63 61
334 41 95 57 305 26 55 23 90 122 106 201 320 294 180 185 233 218 239 245 254 68 159 210 77 231 125 0 220 92 278 348 195 157 219 224 203 205 166 166 158 148 149 162 170 171 173 180 179 180 179 178 178 175 173 170 170 171 170 172 172 174 174 173 175 178 180 180 179 176 169 165 155 152 150 141 133 134 131 131 132 135 131 125 129 121 94 93 87 80 76 69 52 48 51 54 55
9 320 90 96 102 1 96 132 134 104 78 203 153 275 270 216 213 227 263 278 279 222 89 165 50 291 185 208 199 175 254 244 306 167 252 251 230 177 143 156 146 150 162 167 168 171 175 178 180 179 179 179 180 175 175 173 172 173 172 175 176 177 178 177 180 183 185 184 179 175 169 162 159 158 148 143 135 134 133 133 130 104 83 130 141 131 101 85 83 85 75 68 56 41 44 42 41
61 38 15 85 63 159 47 44 349 275 220 153 180 239 229 219 198 211 283 309 233 234 178 101 191 282 335 215 180 172 204 65 225 264 162 247 182 179 142 148 145 157 165 166 169 170 177 180 179 180 179 181 180 175 175 175 174 175 176 178 179 179 182 181 182 187 190 188 182 178 167 167 172 159 154 141 138 141 135 122 125 110 88 47 30 159 141 123 129 94 80 57 51 38 39 39 34
348 28 356 23 11 56 147 118 249 218 276 161 207 224 211 238 235 123 341 8 292 4 180 220 90 36 22 302 329 250 186 230 116 238 165 152 144 156 138 146 147 161 165 170 170 172 177 180 181 181 180 182 181 176 177 177 177 177 179 183 184 182 184 185 187 188 193 193 186 178 173 174 177 163 159 143 146 147 142 146 122 119 107 55 347 10 185 170 149 178 92 65 43 32 40 39 36
86 93 324 96 273 44 46 139 232 157 278 171 226 185 228 228 204 89 225 96 290 146 288 303 294 116 255 27 220 273 328 176 255 312 262 120 147 160 145 142 151 166 168 169 172 175 178 180 183 183 181 183 181 176 178 180 181 178 180 185 188 188 188 190 191 192 195 193 187 183 174 184 177 168 160 168 157 154 148 171 155 142 133 158 304 345 104 171 206 139 164 123 66 23 44 41 45
357 78 14 65 34 27 46 293 269 245 287 290 288 222 246 210 175 119 85 233 328 307 288 270 233 50 259 351 228 265 292 323 347 18 111 129 160 173 155 156 156 166 171 169 173 174 179 185 185 185 183 185 182 177 181 182 182 180 180 187 189 192 192 194 194 196 195 194 192 184 178 183 176 166 163 155 152 154 168 195 130 153 150 172 224 258 241 327 167 208 196 181 77 31 48 48 43
17 85 344 111 132 5 351 303 42 195 241 277 238 274 246 244 348 63 150 356 179 88 266 228 184 220 288 293 308 340 34 337 349 71 36 159 183 172 178 173 163 159 169 174 172 175 181 186 186 187 186 186 184 180 182 182 183 182 182 186 188 192 195 197 198 200 197 195 192 183 181 183 180 169 163 161 164 164 170 158 167 170 176 197 225 208 269 259 249 206 146 140 134 112 54 48 67
0 7 140 65 27 40 328 269 275 316 286 318 309 248 246 257 129 119 126 242 14 195 314 141 9 256 62 270 222 251 319 121 112 202 217 220 205 189 200 180 166 168 169 175 174 176 179 184 189 189 188 187 187 183 183 183 182 181 182 186 188 189 193 198 200 202 199 187 193 189 183 183 183 175 170 169 169 168 166 165 173 183 208 243 227 218 222 215 198 160 135 131 142 129 81 99 89
18 4 6 105 191 161 241 222 280 271 286 326 253 281 254 169 77 353 331 13 328 336 217 134 256 143 264 331 290 291 354 251 208 238 231 222 198 213 212 200 173 195 172 173 173 180 180 182 188 192 190 190 190 186 185 184 184 182 183 185 188 189 190 196 199 198 196 184 191 187 189 184 179 180 175 170 167 166 166 169 174 196 214 201 200 208 213 196 178 148 117 116 132 155 161 119 98
111 107 73 91 225 140 223 319 256 302 329 240 205 268 90 60 58 232 248 197 202 335 319 218 147 85 289 201 255 322 308 242 232 230 219 176 202 218 245 191 216 189 160 170 171 183 183 184 188 191 192 191 192 190 189 187 186 184 184 186 188 189 190 192 194 193 190 185 192 187 184 185 181 171 175 168 162 165 169 169 181 187 188 186 192 199 206 190 191 144 126 127 156 181 168 137 105
102 166 121 283 66 271 184 248 303 334 313 261 272 295 356 142 243 210 147 313 283 253 238 190 114 150 264 0 313 333 255 258 210 190 152 175 142 331 200 207 176 190 167 166 180 181 185 190 190 192 192 193 191 192 192 191 189 186 186 187 188 189 190 191 190 187 185 184 183 186 184 184 166 165 171 164 161 161 167 167 169 179 181 182 189 193 185 185 176 162 136 147 188 180 164 132 106
89 125 85 113 312 44 247 192 241 114 265 228 266 7 352 269 177 313 208 245 273 213 348 132 178 86 252 142 285 252 274 227 156 118 99 70 64 40 353 252 156 162 181 187 174 176 189 188 193 193 194 195 193 190 191 196 194 191 189 188 188 189 190 190 188 185 181 180 180 184 177 168 164 165 164 161 161 162 161 159 165 176 180 184 181 182 179 172 172 164 151 171 186 180 160 127 109
145 82 76 49 274 101 273 221 348 109 263 212 277 339 355 299 200 96 276 183 256 297 106 244 83 209 215 158 243 245 279 155 138 89 90 92 45 26 13 317 275 163 195 194 186 189 180 184 190 195 195 196 195 195 193 193 199 197 193 190 190 189 188 188 186 184 179 177 177 170 165 168 166 162 161 163 163 163 158 157 168 175 184 182 186 181 183 176 175 166 165 185 184 176 159 123 110
56 82 1 32 292 155 262 179 131 314 261 279 296 8 208 281 292 241 206 140 302 278 314 230 195 1 204 212 257 118 110 120 96 83 91 87 91 114 349 301 281 274 213 218 204 195 186 184 188 190 198 198 197 197 198 196 197 199 200 196 193 193 188 186 185 183 178 176 170 166 157 163 163 162 162 162 163 161 160 163 168 176 175 180 176 184 187 181 182 171 174 191 182 172 117 97 84
57 109 115 263 200 143 214 196 191 184 262 287 323 259 223 304 323 283 355 325 337 291 300 272 300 259 240 260 75 102 139 125 132 132 142 168 149 206 238 257 252 224 227 225 233 209 190 196 191 191 192 198 196 196 198 197 196 197 198 198 196 196 193 185 184 182 179 174 170 164 158 158 163 164 163 161 164 165 166 167 170 171 167 164 169 180 187 188 180 175 187 189 181 127 108 75 13
114 113 104 225 188 239 160 207 213 307 259 256 278 295 187 259 131 294 359 284 320 319 285 289 290 277 287 294 311 60 128 138 147 171 173 192 198 203 211 218 233 254 250 235 227 209 203 194 193 192 193 194 196 198 197 195 194 195 199 194 194 193 194 191 186 182 178 173 172 166 161 160 161 163 165 168 169 172 171 172 172 169 166 162 166 174 181 186 179 176 189 191 156 121 97 95 49
231 122 230 248 213 241 227 232 264 189 245 289 310 275 287 267 289 271 276 286 297 274 286 309 288 283 275 268 308 33 151 167 185 182 202 209 207 207 207 214 223 226 228 216 216 201 199 199 198 195 193 190 193 199 198 194 192 188 199 194 187 188 188 192 185 182 180 175 171 167 164 162 159 162 173 171 164 167 176 174 174 170 165 161 166 165 181 170 176 176 193 165 112 97 116 119 137
268 102 192 229 219 209 271 256 241 257 189 278 280 290 322 288 228 19 304 337 293 256 238 234 269 283 291 271 254 171 175 197 218 227 233 235 234 228 217 209 205 212 218 234 252 221 202 204 198 204 195 189 193 198 200 200 193 186 195 194 186 184 187 185 180 178 180 176 169 163 165 159 157 160 161 164 168 167 168 176 174 171 163 163 161 160 156 163 155 150 143 109 129 137 141 195 182
113 209 206 208 105 216 256 254 269 279 334 347 306 327 276 307 342 227 165 264 277 279 270 218 241 263 276 290 288 179 196 209 222 224 232 232 230 231 228 241 242 233 189 209 222 219 210 200 198 198 189 195 196 198 202 200 192 197 196 192 185 186 187 184 177 177 175 175 168 166 158 162 163 160 163 167 171 170 170 176 178 171 165 169 159 156 154 145 140 131 133 143 153 158 175 197 215
238 293 258 230 231 239 257 280 293 18 321 309 305 255 326 31 280 256 247 237 263 261 248 263 261 265 269 285 285 272 217 220 223 228 230 241 246 247 241 227 213 213 200 221 217 218 213 205 197 180 194 196 200 199 200 201 204 205 200 191 188 189 183 184 185 178 174 167 172 163 160 167 165 163 170 174 176 175 177 178 177 175 172 170 172 155 163 156 148 148 149 163 157 170 197 244 243
203 253 268 280 222 236 254 279 317 304 221 256 224 344 304 311 307 253 251 258 251 268 273 259 266 280 294 299 271 263 278 249 244 250 269 265 280 280 307 320 329 335 229 236 220 216 209 213 195 179 192 193 200 195 196 199 204 203 203 194 198 187 182 189 188 184 165 173 172 172 174 170 167 168 180 181 186 181 188 184 177 177 172 175 171 165 159 161 154 154 157 160 165 180 199 237 239
202 256 266 271 238 238 256 259 278 268 267 259 315 292 270 227 256 352 272 274 280 272 304 274 268 291 302 307 319 343 331 334 333 326 348 331 310 311 344 321 304 223 261 301 309 257 222 208 182 197 192 194 196 187 197 198 195 199 195 199 205 190 193 192 186 170 176 178 178 175 176 177 175 173 176 182 158 199 188 188 182 183 175 174 167 180 167 165 164 163 168 170 177 187 195 230 221
214 228 252 303 296 306 289 305 278 260 271 210 329 273 276 264 248 258 255 268 264 300 328 300 341 328 331 337 11 29 37 25 14 26 24 17 24 28 9 1 347 359 258 259 233 237 305 233 194 201 199 191 183 180 200 191 187 194 196 198 201 192 203 193 174 182 185 175 190 189 183 179 185 181 176 171 174 191 186 187 189 185 184 175 178 182 189 167 170 169 169 174 180 192 193 217 189
186 234 215 237 260 286 270 230 280 281 260 221 240 277 278 340 146 283 271 242 275 345 309 309 3 350 354 37 49 39 47 31 22 348 26 18 19 22 3 3 10 348 340 331 293 225 205 197 218 210 204 189 164 185 191 195 172 195 197 190 185 192 189 178 185 185 183 188 191 188 186 185 179 181 177 173 180 178 179 180 192 176 188 191 187 185 178 182 169 178 179 182 187 190 204 195 188
298 253 316 317 314 290 262 266 263 314 293 188 188 246 278 280 164 239 260 265 31 327 314 318 12 22 58 66 59 44 46 28 21 31 29 18 7 360 11 9 352 354 9 352 330 283 189 198 209 212 201 179 174 189 179 187 189 186 179 178 190 186 168 179 185 184 188 191 187 186 188 186 176 180 177 179 179 176 181 185 181 179 197 186 188 177 181 184 180 186 184 185 189 187 200 197 201
306 38 323 299 334 327 285 267 278 126 262 165 155 343 319 163 217 238 245 271 354 324 301 5 26 60 70 63 56 48 38 28 29 34 21 11 360 359 15 6 1 7 8 4 357 19 358 302 234 216 167 164 188 195 186 177 157 158 163 181 176 160 168 174 183 189 190 190 184 186 191 188 184 180 183 179 182 179 178 180 183 195 193 185 184 174 170 174 169 172 196 182 184 189 192 208 203
348 4 45 328 338 320 278 270 286 152 250 134 143 281 267 261 236 256 271 305 333 320 306 23 29 69 64 62 64 56 40 33 32 27 16 8 5 3 11 2 13 23 16 14 29 28 10 18 17 38 46 152 190 149 141 158 159 145 146 154 154 159 171 172 189 189 186 185 184 187 188 191 190 187 175 181 175 175 177 184 187 195 192 182 174 162 174 169 177 179 201 179 202 192 202 202 188
245 254 94 251 337 268 280 307 298 333 214 163 145 193 272 270 283 273 274 316 295 292 17 38 65 78 73 63 60 57 46 40 33 24 17 14 8 8 11 10 16 23 31 28 31 21 34 30 25 42 35 51 42 31 42 72 93 116 130 143 154 163 169 175 175 173 182 192 180 186 188 187 189 184 182 174 183 177 179 188 194 198 176 166 175 181 172 174 176 196 176 200 214 222 214 207 200
323 20 292 325 182 280 299 300 198 210 308 140 116 274 234 260 276 286 284 10 125 287 50 60 79 80 70 63 59 56 50 36 32 28 19 13 13 11 14 15 19 28 34 31 34 32 38 32 30 38 27 29 42 57 56 71 80 91 98 117 133 150 153 161 165 177 179 171 176 182 187 184 186 183 178 175 178 186 186 193 203 180 175 167 177 177 172 181 185 190 198 183 189 235 229 233 222
346 190 270 274 194 257 350 290 179 235 185 28 163 218 331 303 260 285 293 348 3 356 52 78 81 74 68 60 61 56 49 35 33 26 17 13 12 15 16 18 24 28 31 33 32 36 38 29 31 33 28 23 27 36 46 51 53 51 44 41 46 59 75 92 110 127 139 157 168 174 179 180 185 181 181 181 178 185 192 198 195 182 166 174 177 182 190 185 178 185 192 202 194 201 216 240 240
283 320 217 217 218 245 237 300 307 84 112 209 288 218 235 259 299 295 302 312 349 345 59 91 86 80 73 71 63 59 52 46 35 18 11 10 10 14 19 24 27 32 34 33 33 38 37 32 33 30 26 28 32 30 37 50 55 60 56 56 53 51 41 40 43 56 56 71 138 171 175 174 181 180 178 179 185 187 192 193 175 168 166 173 180 181 203 177 179 178 198 205 196 187 204 214 229
217 225 233 285 257 223 245 258 264 11 357 277 308 277 269 272 283 288 283 331 338 336 82 109 94 82 74 72 70 60 59 52 32 16 10 9 13 14 21 26 32 36 36 33 34 32 34 31 30 30 28 19 21 25 29 39 42 50 58 50 51 44 40 42 49 58 53 64 56 66 78 114 138 135 152 163 175 178 185 186 176 179 169 171 173 187 188 175 177 193 199 209 215 213 200 209 208
217 219 230 209 251 264 231 240 275 348 304 306 289 278 291 295 276 274 338 307 322 70 99 94 89 83 77 75 68 65 61 55 31 20 13 17 18 20 25 28 38 39 38 35 35 32 31 30 29 32 27 22 24 26 26 29 38 39 37 28 37 21 23 31 33 41 37 52 61 86 108 109 117 134 137 126 134 142 174 196 200 165 174 162 175 184 196 186 196 196 213 195 205 232 272 200 141
255 5 228 257 252 278 272 272 262 148 311 241 255 284 262 278 284 291 36 72 32 85 106 99 89 85 82 80 76 71 60 59 19 26 26 24 26 27 31 34 35 39 36 33 35 32 32 30 33 31 19 25 30 25 24 30 24 19 32 37 42 22 25 23 31 17 26 19 28 54 60 65 91 123 133 146 169 163 193 167 170 187 174 182 193 207 202 203 204 199 191 179 189 207 243 172 166
237 262 275 276 243 263 256 262 311 316 186 286 334 325 293 283 290 357 7 46 24 83 104 95 95 87 83 83 81 69 70 51 31 36 30 32 31 31 33 34 31 36 27 31 34 31 29 28 34 29 22 26 28 26 27 41 28 39 70 43 69 42 30 29 19 14 359 12 27 28 30 41 84 106 102 115 123 170 179 170 197 207 180 206 219 236 208 212 182 182 152 195 206 195 225 181 178
242 217 243 279 266 261 280 269 309 281 139 261 304 327 286 285 347 27 42 53 45 47 78 94 102 97 90 82 80 77 65 52 40 41 36 34 34 35 38 37 36 38 36 34 31 36 31 31 30 30 28 27 23 20 27 25 16 34 52 32 33 56 55 57 53 20 19 15 22 12 18 41 35 0 27 112 178 171 185 179 225 202 204 226 225 230 206 207 200 196 183 193 214 234 233 191 179
214 243 218 237 234 269 299 281 309 308 147 277 305 315 279 297 76 60 31 66 65 57 65 62 51 84 86 77 76 83 71 58 51 37 33 31 36 37 38 36 31 35 34 31 28 31 33 31 30 32 31 30 26 20 23 20 37 45 50 55 44 68 50 14 30 26 15 14 0 358 12 3 16 21 22 20 3 342 338 233 206 173 209 191 214 238 221 227 207 201 197 215 184 214 219 239 192
233 213 228 240 244 227 190 251 315 310 341 46 359 319 317 261 149 63 77 69 75 63 77 70 58 61 69 75 65 50 64 57 59 47 40 36 39 36 38 39 38 39 34 32 28 28 31 31 31 36 38 35 32 25 22 21 30 31 26 33 38 31 24 23 23 14 11 7 5 2 344 341 360 25 22 36 25 356 4 354 335 280 224 206 194 225 227 225 218 217 210 209 197 206 229 231 231
284 222 206 223 223 235 243 334 5 14 337 322 79 336 305 315 104 133 142 64 67 40 73 71 67 63 66 73 70 56 55 48 60 54 48 44 46 41 35 34 41 40 34 26 32 34 31 32 34 37 42 39 34 30 27 34 38 39 37 40 35 30 32 23 18 4 0 10 352 341 5 4 351 347 3 14 31 18 344 7 357 289 261 226 198 232 259 264 236 220 213 211 216 221 225 221 241
194 271 198 219 222 216 214 210 87 287 222 290 55 251 273 317 355 164 129 93 79 51 57 71 67 62 66 71 67 62 57 52 45 51 47 49 38 48 42 39 33 40 29 17 35 37 33 33 36 42 44 43 37 35 33 38 45 42 48 55 55 50 47 25 10 12 16 2 11 19 7 10 10 5 351 349 351 359 355 352 1 317 270 245 217 217 246 241 241 233 231 220 224 222 218 236 223
230 248 148 133 135 159 202 147 165 228 268 300 5 128 258 295 278 159 148 109 105 92 74 73 71 76 72 77 68 63 56 52 57 53 51 50 49 47 49 38 37 38 24 29 37 36 33 27 32 39 43 43 38 35 39 37 47 42 44 46 46 42 38 20 10 9 17 17 25 17 13 10 8 15 11 8 6 358 350 342 354 355 336 290 207 220 242 256 262 262 232 236 245 240 225 232 237
215 197 140 132 158 177 121 103 151 208 19 280 317 6 302 259 268 105 148 122 135 162 158 152 131 105 97 80 68 64 57 51 55 66 55 45 43 41 43 43 29 35 30 31 34 37 35 32 34 40 43 42 37 39 43 39 45 46 49 43 45 34 31 22 7 22 24 15 29 17 17 7 8 7 12 11 11 10 8 359 349 343 338 324 5 267 273 285 268 267 265 245 234 236 226 232 235
264 159 89 69 63 60 100 103 80 337 57 256 190 177 224 273 265 152 261 147 184 185 176 171 178 149 116 97 80 67 57 54 47 52 55 51 40 38 27 43 42 33 29 32 36 38 37 37 37 41 38 37 36 40 44 44 44 46 50 46 50 37 28 25 33 29 25 17 29 21 15 15 5 3 3 5 8 4 4 5 3 355 342 330 334 293 279 283 276 268 262 255 249 248 242 233 234
117 86 63 7 43 37 28 66 88 38 266 247 195 199 180 277 246 193 173 216 175 146 152 172 171 128 114 109 103 95 80 63 58 54 45 47 33 38 28 46 37 34 31 37 36 34 32 35 36 44 35 35 35 38 41 43 43 44 49 47 49 44 35 35 33 28 20 23 23 15 17 7 7 6 360 360 6 1 358 1 2 356 350 344 331 327 309 285 275 272 282 291 281 263 257 250 246
116 94 115 42 334 7 31 347 44 132 268 258 231 197 177 203 289 262 259 300 172 162 169 173 169 167 157 140 114 93 79 68 58 56 41 31 40 35 39 41 37 35 38 36 35 33 36 34 37 49 39 34 34 35 43 44 44 44 46 45 45 40 38 38 37 31 21 24 17 15 5 12 13 5 7 4 2 356 357 354 355 0 4 360 353 338 327 321 311 305 293 282 277 272 276 274 266
86 92 69 128 257 38 316 31 276 207 227 262 108 133 80 244 224 253 309 329 168 169 164 163 160 159 154 143 127 109 91 78 66 58 48 44 46 36 34 31 37 36 38 37 38 39 38 39 38 50 39 30 32 32 40 38 39 36 36 39 41 40 41 42 38 35 21 24 16 17 15 13 3 10 3 2 357 352 351 358 359 359 356 358 353 358 344 337 334 326 312 303 286 279 267 263 262
117 151 146 99 203 213 248 259 235 305 292 257 130 185 255 252 313 28 319 314 309 121 133 142 151 150 151 146 136 111 93 93 92 78 68 59 50 50 41 40 42 39 36 37 36 39 35 38 35 52 46 35 33 36 35 38 36 32 31 35 36 36 38 38 35 33 18 22 18 19 17 9 4 2 351 356 338 339 353 356 353 356 357 357 1 359 356 346 343 334 322 316 304 289 284 271 264
203 126 154 185 149 155 223 201 213 218 219 276 268 104 230 148 238 341 291 329 83 111 118 123 120 130 134 133 122 116 100 92 91 81 82 78 63 56 58 47 46 48 44 41 39 34 38 42 43 50 46 31 35 37 36 39 34 30 32 32 33 32 34 34 33 30 20 17 9 14 7 3 7 349 348 328 335 349 351 355 0 3 1 357 359 358 354 349 346 342 330 311 305 296 295 288 278
235 160 70 87 230 138 213 203 161 234 310 318 203 198 188 153 329 258 55 70 74 102 113 120 121 127 128 126 132 138 136 128 116 103 90 84 79 63 55 50 46 47 48 51 51 49 55 48 50 51 51 36 36 35 36 41 36 35 33 34 27 31 32 31 26 17 12 15 7 14 1 358 352 343 338 342 344 352 352 353 356 1 357 358 356 353 347 345 339 339 326 323 313 301 300 298 286
231 102 191 212 161 135 291 352 219 103 31 251 149 325 310 271 250 59 81 104 101 106 120 129 145 150 140 151 159 162 156 142 134 125 120 97 72 52 50 50 42 41 46 51 49 45 48 42 45 44 38 38 33 29 31 31 31 38 23 25 18 28 32 36 25 352 331 332 341 346 347 335 335 344 340 344 343 346 348 352 348 349 353 351 347 348 341 336 335 329 321 318 312 310 309 295 290
100 176 238 190 127 112 137 219 321 108 204 264 96 203 270 131 284 110 215 149 180 174 168 165 169 159 163 185 176 173 171 163 150 141 127 107 94 73 55 49 55 64 71 64 62 64 65 67 58 56 45 40 27 33 37 45 42 43 21 11 2 93 116 163 233 290 282 295 295 279 283 303 308 304 308 315 330 333 338 345 346 340 342 344 342 336 337 330 331 324 313 306 292 301 304 300 290
150 192 222 127 252 268 309 94 248 251 259 258 296 231 239 191 219 145 219 192 195 191 185 172 187 190 188 191 194 190 163 144 148 146 134 125 116 119 120 106 117 94 61 64 44 43 49 44 54 69 48 29 11 9 14 15 30 8 342 328 344 346 355 358 347 339 332 346 343 335 333 311 301 307 310 316 325 325 328 330 336 334 335 336 335 333 331 328 328 321 316 309 305 309 305 297 290
29 14 357 218 109 187 137 206 187 152 261 279 289 310 254 208 199 187 197 196 185 173 180 195 192 193 190 192 189 180 171 168 163 154 151 152 151 155 151 143 127 119 106 62 48 41 34 354 33 8 358 330 338 346 327 336 294 309 321 332 330 331 323 330 325 335 337 330 320 325 327 337 334 329 329 328 331 330 327 325 321 317 318 322 325 327 328 324 322 312 308 308 300 301 296 290 292
88 195 272 295 34 230 98 324 143 193 191 214 239 285 276 267 202 184 203 184 183 178 177 186 197 198 199 193 182 177 175 171 168 162 158 157 165 169 185 184 178 248 275 320 283 253 263 252 236 221 214 266 272 264 264 272 295 316 334 321 311 321 312 307 309 307 308 301 304 310 307 299 317 321 325 327 330 330 330 328 326 323 318 314 314 313 316 320 320 314 312 305 303 300 289 283 281
174 178 211 187 179 239 248 260 65 125 199 235 217 260 278 259 12 229 203 174 161 177 175 183 194 200 194 187 189 176 175 175 169 172 168 162 169 173 188 221 251 336 281 264 252 259 260 241 228 241 248 248 251 279 263 271 291 297 306 303 305 305 303 304 308 301 305 299 298 302 299 315 313 304 316 311 311 313 316 320 322 321 322 320 314 307 307 310 306 308 305 308 309 307 303 296 285